Regional Weather Roundup
Issued by NWS

Home | Current Version | Previous Version | Graphics & Text | Print | Product List | Glossary Off
Versions: 1 2 3 4 5 6 7 8 9 10 11 12 13 14 15 16 17 18 19 20 21 22 23 24 25 26 27 28 29 30 31 32 33 34 35 36 37 38 39 40 41 42 43 44 45 46 47 48 49 50

609
ASUS43 KTOP 292308
RWRKS

WEATHER ROUNDUP FOR KANSAS
NATIONAL WEATHER SERVICE GOODLAND KS
600 PM CDT FRI APR 29 2016

NOTE:  "FAIR" INDICATES FEW OR NO CLOUDS BELOW 12,000 FEET WITH NO
SIGNIFICANT WEATHER AND/OR OBSTRUCTIONS TO VISIBILITY.

KSZ001>006-013>018-027>032-041>047-300000-
NORTHWEST KANSAS

CITY           SKY/WX    TMP DP  RH WIND       PRES   REMARKS
GOODLAND       HVY SNOW  32  32 100 NW7       29.88R VSB 1/4
HAYS           CLOUDY    46  37  71 E24       29.75F
HILL CITY      CLOUDY    45  42  89 NE22G28   29.79F
RUSSELL        CLOUDY    48  45  89 E24G36    29.73F
$$

KSZ061>065-074>080-084>089-300000-
SOUTHWEST KANSAS

CITY           SKY/WX    TMP DP  RH WIND       PRES   REMARKS
DODGE CITY     LGT RAIN  45  43  93 E12       29.75R FOG
ELKHART          N/A     45  37  73 N14         N/A
GARDEN CITY    LGT RAIN  44  43  96 N12       29.79F VSB 1
GREAT BEND     CLOUDY    46  39  76 E23G30    29.74F
LIBERAL        CLOUDY    48  45  87 E5        29.78R
PRATT          CLOUDY    43  42  96 E18G25    29.70F FOG
$$

KSZ066>073-081>083-090>101-300000-
SOUTHEAST KANSAS

CITY           SKY/WX    TMP DP  RH WIND       PRES   REMARKS
CHANUTE        LGT RAIN  59  54  83 NE17G29   29.73F
COFFEYVILLE    CLOUDY    64  57  78 E16G26    29.66F THUNDER
HUTCHINSON     CLOUDY    49  46  90 NE16G26   29.74F
MEDICINE LODGE   N/A     49  47  93 NE18G25   29.66F
NEWTON         CLOUDY    48  43  81 E18G26    29.76S
PARSONS        LGT RAIN  61  59  93 NE12G23   29.72F
WICHITA INTL   CLOUDY    54  49  83 NE20      29.70F
WICHITA JABRA  CLOUDY    52  32  46 NE18G28   29.72F
WICHITA MCCONL CLOUDY    54  50  87 NE20G30   29.69F
WINFIELD       CLOUDY    57  53  86 NE22G29   29.66F
$$

KSZ007>012-019>026-033>040-048>060-102>105-300000-
NORTHEAST KANSAS

CITY           SKY/WX    TMP DP  RH WIND       PRES   REMARKS
CONCORDIA      CLOUDY    48  44  86 E20G32    29.80F
EMPORIA        CLOUDY    52  50  93 NE23G30   29.76F
LAWRENCE       LGT RAIN  51  50  96 NE18      29.86F FOG
MANHATTAN      CLOUDY    51  46  83 E20G31    29.82S
MARYSVILLE     CLOUDY    50  46  87 E24G31    29.84F
OLATHE IND     RAIN      52  51  97 N17       29.89R FOG
OLATHE EXE     RAIN      52  50  93 NE14      29.89R FOG
SALINA         CLOUDY    50  46  86 NE18G26   29.80S
TOPEKA BILLARD CLOUDY    51  49  92 NE22G32   29.83F
TOPEKA FORBES  CLOUDY    52  49  89 E20G29    29.83F
$$




USA.gov is the U.S. government's official web portal to all federal, state and local government web resources and services.